EW0943 Weather Reports


time (UTC)temp
F
wind
direction
speed
knots
gust
knots
rain 1hr
in
rain 24hr
in
rain mn
in
humidity
%
barometer
mb
20260503184503 64 140 7.0 20.9 0.00 0.00 0.00 44 1006.1
20260503184003 63 233 5.2 24.3 0.00 0.00 0.00 44 1006.3
20260503183503 63 231 8.7 24.3 0.00 0.00 0.00 45 1006.3
20260503183004 63 207 12.2 23.5 0.00 0.00 0.00 44 1006.4
20260503182503 63 211 17.4 21.7 0.00 0.00 0.00 44 1006.6
20260503182003 63 264 13.9 21.7 0.00 0.00 0.00 45 1006.6
20260503181504 63 236 19.1 27.8 0.00 0.00 0.00 46 1006.7
20260503181004 62 165 12.2 27.8 0.00 0.00 0.00 46 1006.9
20260503180503 62 209 5.2 22.6 0.00 0.00 0.00 46 1006.9
20260503180033 62 225 10.4 22.6 0.00 0.00 0.00 46 1006.9
20260503175518 61 238 12.2 22.6 0.00 0.00 0.00 47 1006.9
20260503175003 62 245 13.0 22.6 0.00 0.00 0.00 47 1007.1
20260503174503 62 243 12.2 18.2 0.00 0.00 0.00 47 1007.2
20260503174003 62 212 10.4 20.0 0.00 0.00 0.00 48 1007.3
20260503173503 61 194 8.7 24.3 0.00 0.00 0.00 48 1007.3
20260503173003 61 229 13.9 24.3 0.00 0.00 0.00 47 1007.3
20260503172504 61 281 10.4 20.0 0.00 0.00 0.00 48 1007.3
20260503172003 60 191 4.3 21.7 0.00 0.00 0.00 50 1007.5
20260503171503 60 236 5.2 21.7 0.00 0.00 0.00 54 1007.7
20260503171003 59 236 15.6 21.7 0.00 0.00 0.00 53 1007.6
20260503170503 58 257 17.4 23.5 0.00 0.00 0.00 55 1007.8
20260503151003 57 242 4.3 16.5 0.00 0.00 0.00 52 1008.7
20260503150503 57 242 9.6 16.5 0.00 0.00 0.00 52 1008.7
20260503131003 52 224 8.7 17.4 0.00 0.00 0.00 54 1009.6
20260503130503 52 235 2.6 17.4 0.00 0.00 0.00 54 1009.7
20260503110503 50 210 6.1 6.1 0.00 0.00 0.00 49 1010.2
20260503090503 50 241 2.6 16.5 0.00 0.00 0.00 48 1010.8
20260503081502 50 233 11.3 16.5 0.00 0.00 0.00 49 1011.5
20260503081002 50 245 4.3 10.4 0.00 0.00 0.00 50 1011.6
20260503080503 50 203 6.1 12.2 0.00 0.00 0.00 50 1011.6
20260503072517 51 222 9.6 13.0 0.00 0.00 0.00 47 1011.9
20260503072002 51 240 9.6 13.0 0.00 0.00 0.00 47 1011.9
20260503071503 51 242 6.1 11.3 0.00 0.00 0.00 47 1011.8
20260503071002 51 224 7.8 12.2 0.00 0.00 0.00 47 1011.9
20260503070502 50 257 9.6 12.2 0.00 0.00 0.00 47 1012.0
20260503055003 50 236 4.3 11.3 0.00 0.00 0.00 48 1012.7
20260503054502 50 248 3.5 11.3 0.00 0.00 0.00 48 1012.7
20260503054002 50 233 2.6 10.4 0.00 0.00 0.00 48 1012.7
20260503053502 50 232 6.1 10.4 0.00 0.00 0.00 48 1012.8
20260503053002 50 250 4.3 10.4 0.00 0.00 0.00 48 1012.8
20260503052502 50 232 6.1 10.4 0.00 0.00 0.00 49 1012.9
20260503052018 49 266 6.1 11.3 0.00 0.00 0.00 50 1012.8
20260503051502 48 228 4.3 11.3 0.00 0.00 0.00 52 1013.0
20260503051002 46 208 4.3 9.6 0.00 0.00 0.00 56 1012.8
20260503050502 44 239 2.6 5.2 0.00 0.00 0.00 61 1012.8
20260503050032 43 233 0.9 2.6 0.00 0.00 0.00 65 1012.8
20260503045517 42 210 0.0 1.7 0.00 0.00 0.00 67 1012.8
20260503045002 42 205 0.0 1.7 0.00 0.00 0.00 68 1012.8
20260503044517 42 205 0.0 2.6 0.00 0.00 0.00 69 1012.8
20260503044002 41 187 0.0 2.6 0.00 0.00 0.00 70 1012.8
20260503043502 41 208 0.0 1.7 0.00 0.00 0.00 70 1012.8
20260503043017 41 199 0.0 1.7 0.00 0.00 0.00 71 1012.9
20260503042502 41 180 0.0 0.9 0.00 0.00 0.00 72 1013.0
20260503042002 41 162 0.0 0.9 0.00 0.00 0.00 72 1013.0
20260503041502 41 200 0.0 0.0 0.00 0.00 0.00 71 1013.1
20260503041002 41 187 0.0 0.0 0.00 0.00 0.00 70 1013.1
20260503040502 41 190 0.0 0.9 0.00 0.00 0.00 70 1013.2
20260503040017 42 166 0.0 0.9 0.00 0.00 0.00 70 1013.2
20260503035502 42 198 0.0 0.9 0.00 0.00 0.00 70 1013.3
20260503035002 42 239 0.0 0.9 0.00 0.00 0.00 69 1013.3
20260503034502 42 225 0.0 0.9 0.00 0.00 0.00 69 1013.4
20260503034002 42 236 0.0 0.9 0.00 0.00 0.00 69 1013.4
20260503033502 42 225 0.9 0.9 0.00 0.00 0.00 69 1013.5
20260503033002 42 217 0.0 1.7 0.00 0.00 0.00 68 1013.4
20260503032502 42 221 0.0 1.7 0.00 0.00 0.00 68 1013.5
20260503032002 43 215 0.0 1.7 0.00 0.00 0.00 68 1013.6
20260503031502 43 245 0.0 1.7 0.00 0.00 0.00 67 1013.6
20260503031002 43 214 0.0 1.7 0.00 0.00 0.00 67 1013.6
20260503030502 43 204 0.0 1.7 0.00 0.00 0.00 66 1013.7
20260503030002 43 212 0.0 1.7 0.00 0.00 0.00 66 1013.7
20260503025502 43 188 0.0 0.9 0.00 0.00 0.00 66 1013.7
20260503025002 43 190 0.0 0.9 0.00 0.00 0.00 65 1013.8
20260503024502 43 221 0.0 1.7 0.00 0.00 0.00 65 1013.8
20260503024002 44 212 0.9 1.7 0.00 0.00 0.00 65 1013.8
20260503023502 44 218 0.0 3.5 0.00 0.00 0.00 64 1013.8
20260503023002 44 217 0.0 3.5 0.00 0.00 0.00 64 1013.8
20260503022502 44 175 0.9 1.7 0.00 0.00 0.00 64 1013.8
20260503022002 44 192 0.9 1.7 0.00 0.00 0.00 64 1013.8
20260503021502 44 214 0.0 0.9 0.00 0.00 0.00 63 1013.8
20260503021002 44 181 0.0 0.9 0.00 0.00 0.00 63 1013.8
20260503020502 44 240 0.0 2.6 0.00 0.00 0.00 63 1013.8
20260503020032 45 188 0.0 2.6 0.00 0.00 0.00 63 1013.8
20260503015502 45 143 1.7 2.6 0.00 0.00 0.00 63 1013.7
20260503015002 45 239 0.0 1.7 0.00 0.00 0.00 62 1013.7
20260503014502 45 183 0.9 1.7 0.00 0.00 0.00 62 1013.7
20260503014002 45 249 0.0 2.6 0.00 0.00 0.00 62 1013.6
20260503013502 46 194 0.9 2.6 0.00 0.00 0.00 61 1013.6
20260503013002 46 158 0.0 3.5 0.00 0.00 0.00 61 1013.6
20260503012502 46 193 0.0 4.3 0.00 0.00 0.00 61 1013.6
20260503012002 47 224 0.0 4.3 0.00 0.00 0.00 60 1013.6
20260503011503 47 172 1.7 6.1 0.00 0.00 0.00 60 1013.7
20260503011002 47 124 1.7 7.0 0.00 0.00 0.00 59 1013.7
20260503010502 47 137 5.2 7.0 0.00 0.00 0.00 59 1013.7
20260503010017 48 134 1.7 6.1 0.00 0.00 0.00 58 1013.7
20260503005502 48 146 1.7 6.1 0.00 0.00 0.00 58 1013.6
20260503005002 49 143 4.3 7.8 0.00 0.00 0.00 57 1013.7
20260503004502 49 120 4.3 7.8 0.00 0.00 0.00 56 1013.7
20260503004002 49 146 2.6 6.1 0.00 0.00 0.00 56 1013.7
20260503003517 50 152 2.6 7.8 0.00 0.00 0.00 55 1013.8
20260503003002 50 120 2.6 8.7 0.00 0.00 0.00 54 1013.8
20260503002517 50 193 3.5 8.7 0.00 0.00 0.00 54 1013.7
20260503002002 51 149 0.9 7.8 0.00 0.00 0.00 53 1013.8
20260503001517 51 131 3.5 7.8 0.00 0.00 0.00 52 1013.8
20260503001002 52 129 6.1 10.4 0.00 0.00 0.00 51 1013.8
20260503000502 52 113 2.6 10.4 0.00 0.00 0.00 51 1013.8
20260503000002 52 146 3.5 8.7 0.00 0.00 0.00 51 1013.8
20260502235502 52 108 3.5 7.0 0.00 0.00 0.00 51 1013.7
20260502235002 51 115 1.7 9.6 0.00 0.00 0.00 52 1013.7
20260502234502 51 137 3.5 9.6 0.00 0.00 0.00 51 1013.7
20260502234002 51 103 5.2 7.8 0.00 0.00 0.00 51 1013.7
20260502233502 51 132 5.2 7.0 0.00 0.00 0.00 52 1013.7
20260502233002 50 127 4.3 7.0 0.00 0.00 0.00 52 1013.9
20260502232502 50 110 1.7 7.0 0.00 0.00 0.00 51 1013.9
20260502232017 51 143 0.9 7.8 0.00 0.00 0.00 51 1014.0
20260502231502 51 127 5.2 9.6 0.00 0.00 0.00 50 1014.0
20260502231032 51 139 3.5 9.6 0.00 0.00 0.00 49 1014.1
20260502230602 52 138 2.6 9.6 0.00 0.00 0.00 47 1014.2
20260502230017 52 124 6.1 9.6 0.00 0.00 0.00 47 1014.2
20260502225502 52 144 3.5 8.7 0.00 0.00 0.00 49 1013.9
20260502225002 52 127 5.2 9.6 0.00 0.00 0.00 50 1014.0
20260502224502 52 132 4.3 9.6 0.00 0.00 0.00 48 1014.1
20260502224017 52 128 4.3 7.8 0.00 0.00 0.00 48 1014.1
20260502223502 52 114 4.3 8.7 0.00 0.00 0.00 49 1014.2
20260502223017 51 128 4.3 10.4 0.00 0.00 0.00 49 1014.1
20260502222502 52 115 5.2 10.4 0.00 0.00 0.00 49 1014.2
20260502222002 52 115 6.1 8.7 0.00 0.00 0.00 48 1014.3
20260502221502 52 117 4.3 8.7 0.00 0.00 0.00 47 1014.3
20260502221002 52 115 1.7 8.7 0.00 0.00 0.00 48 1014.4
20260502220502 52 108 3.5 8.7 0.00 0.00 0.00 46 1014.5
20260502220002 52 136 2.6 9.6 0.00 0.00 0.00 47 1014.5
20260502215502 53 143 3.5 9.6 0.00 0.00 0.00 46 1014.5
20260502215017 53 129 3.5 8.7 0.00 0.00 0.00 45 1014.5
20260502214502 54 105 4.3 7.0 0.00 0.00 0.00 43 1014.6
20260502214002 55 179 2.6 7.0 0.00 0.00 0.00 42 1014.7
20260502213502 55 143 2.6 7.0 0.00 0.00 0.00 42 1014.7
20260502213002 56 90 5.2 8.7 0.00 0.00 0.00 44 1014.8
20260502212502 56 219 2.6 8.7 0.00 0.00 0.00 41 1014.8
20260502212002 56 139 7.0 7.0 0.00 0.00 0.00 44 1014.9
20260502211502 55 201 1.7 6.1 0.00 0.00 0.00 44 1015.0
20260502211002 54 210 2.6 7.8 0.00 0.00 0.00 44 1014.9
20260502210502 55 129 6.1 7.8 0.00 0.00 0.00 41 1014.8
20260502210002 56 138 3.5 7.0 0.00 0.00 0.00 37 1015.0
20260502205532 57 228 0.9 7.8 0.00 0.00 0.00 36 1015.1
20260502205017 57 239 1.7 7.8 0.00 0.00 0.00 35 1015.1
20260502204502 56 225 4.3 6.1 0.00 0.00 0.00 36 1015.1
20260502204017 55 251 1.7 8.7 0.00 0.00 0.00 35 1015.3
20260502203517 56 214 5.2 10.4 0.00 0.00 0.00 34 1015.4
20260502203017 56 214 4.3 10.4 0.00 0.00 0.00 34 1015.4
20260502202502 56 290 4.3 9.6 0.00 0.00 0.00 34 1015.5
20260502202017 57 284 3.5 4.3 0.00 0.00 0.00 34 1015.6
20260502201502 56 159 0.9 6.1 0.00 0.00 0.00 36 1015.6
20260502201017 55 280 1.7 7.0 0.00 0.00 0.00 36 1015.7
20260502200502 56 295 2.6 7.0 0.00 0.00 0.00 34 1015.8
20260502200002 56 218 4.3 6.1 0.00 0.00 0.00 33 1015.9
20260502195501 56 338 0.9 7.0 0.00 0.00 0.00 34 1016.1
20260502195002 56 273 0.9 7.0 0.00 0.00 0.00 34 1016.1
20260502194502 57 321 1.7 10.4 0.00 0.00 0.00 34 1016.1
20260502194001 57 325 2.6 10.4 0.00 0.00 0.00 33 1016.3
20260502193502 57 270 7.0 8.7 0.00 0.00 0.00 35 1016.3
20260502193017 56 293 1.7 8.7 0.00 0.00 0.00 35 1016.5
20260502192502 55 326 1.7 9.6 0.00 0.00 0.00 33 1016.5
20260502192002 55 293 5.2 9.6 0.00 0.00 0.00 32 1016.6
20260502191502 56 285 9.6 9.6 0.00 0.00 0.00 33 1016.7
20260502191016 55 353 0.9 8.7 0.00 0.00 0.00 36 1016.7
20260502190517 55 309 6.1 8.7 0.00 0.00 0.00 32 1016.8
20260502190032 56 319 2.6 10.4 0.00 0.00 0.00 32 1016.9
20260502185502 56 325 2.6 11.3 0.00 0.00 0.00 34 1017.1